STARLINK-4750 (53841 NORAD) Tracking and Keplerian Element Data

This shows tracking and keplerian element data for the satellite.

Feedback or suggestion? Click here.




ElementValue
Catalog53841
NameSTARLINK-4750
Epoch Orbit130
Epoch Day324.91667824
Epoch Year2022
RAAN307.6897
Inclination53.2175
Eccentricity0.0001238
Argument of Perigee75.5937
Mean Anonmoly114.8854
Mean Motion15.67168101
Decay Rate-0.01138436
L11 53841U 22114Z 22324.91667824 -.01138436 00000+0 -11511-1 0 9994
L22 53841 53.2175 307.6897 0001238 75.5937 114.8854 15.67168101 1307



Live tracking and technical data element details for STARLINK-4750 (NORAD 53841). STARLINK-4750 can be tracked NOW for your location showing map with azimuth and elevation plus other details from your city location.







IsCatalogInMostPopularTable: catalog: 53841, numindb: -1

Insert: records affected: 1


GetName: 53841 STARLINK-4750

Hit Count: inserted at: Mon, 28 Nov 2022 04:04:46 GMT